SCOUT G-1 DEB

Satellite information

Favourite Embed

Satellite Type and Status

DEBRISIN ORBIT

Key statistics

Satellite SCOUT G-1 DEB at a glance.

Uptime

11860

Days in orbit

Revolutions

≈ 14.5

Per day

Orbit

LEO

Low Earth Orbit

Inclination

89.3

Latest

Satellite identification and parameters

Extended collection of information and parameters for SCOUT G-1 DEB.

Object identification

Identified? True

Debris? True

Object name: SCOUT G-1 DEB

International designator: 1993-041C

Object number (NORAD): 22706

Object ID (CCSDS): 22706

Country: UNITED STATES OF AMERICA (US)

Current information (Y/N): Y

RCS size: SMALL

Orbital parameters

Period: 99.532 minutes

Inclination: 89.2716 deg

SMA: 7114.328 km

Apoapsis: 754.225 km

Periapsis: 718.162 km

RAAN: 71.3748 deg

Eccentricy: 0.00253449

Argument of periapsis: 311.8893 deg

Mean anomaly: 221.5458 deg

Mean motion: 14.46777999 rev/day

Mean motion (dot): 0.0000166 rev/day2

B* drag term: 0.00045327499 1/REarth

Two-line elements (TLE)

Creation date: Dec. 13, 2025, 4:32 a.m.

Reference frame: TEME

Reference center: EARTH

Epoch: Dec. 13, 2025, 12:12 a.m. UTC

TLE line 0: 0 SCOUT G-1 DEB

TLE line 1: 1 22706U 93041C 25347.00835409 .00001660 00000-0 45327-3 0 9991

TLE line 2: 2 22706 89.2716 71.3748 0025345 311.8893 221.5458 14.46777999702991

Live tracking on map

Real-time ground track for satellite SCOUT G-1 DEB.

In-orbit conjunctions

A list of the most updated potential collisions computed for object SCOUT G-1 DEB.

Target Orbit TCA Probability of collision Miss distance Type
CZ-6A DEB LEO 2024-11-20 03:59:29 0.000667103 287.0 (m) DEBRIS

Associated space launch

RadCal (Radar Calibration) is small satellite to calibrate the Space Command radars to determine orbital positions of other satellites to within a few meters.

SCOUT G-1 DEB was lifted into orbit during the mission ‘Scout G-1 | RADCAL’, on board a Scout G-1 space rocket.

The launch took place on June 25, 1993, 11:30 p.m. from Space Launch Complex 5.

For more information about the launch, click the button.

Launch to space Scout G-1 | RADCAL
Scout G-1 | RADCAL

Agency: N/A

Status: Launch Successful

Launch date: June 25, 1993, 11:30 p.m. UTC

Rocket: Scout G-1

Launch pad: Space Launch Complex 5

Location: Vandenberg SFB, CA, USA

...

Latest news about this satellite

There are no fresh news available about this satellite. Check back as we update our databases every day.


Newsletter sign-up

Weekly statistics, charts and insights to help you stay on top of the space industry.